Regional Weather Roundup
Issued by NWS

Home | Current Version | Previous Version | Graphics & Text | Print | Product List | Glossary On
Versions: 1 2 3 4 5 6 7 8 9 10 11 12 13 14 15 16 17 18 19 20 21 22 23 24 25 26 27 28
000
ASUS45 KTFX 290410
RWRMT
MONTANA REGIONAL WEATHER ROUNDUP
NATIONAL WEATHER SERVICE GREAT FALLS MT
1000 PM MDT WED SEP 28 2016

NOTE: "FAIR" INDICATES FEW OR NO CLOUDS BELOW 12000 FEET WITH NO
SIGNIFICANT WEATHER AND/OR OBSTRUCTIONS TO VISIBILITY.

MTZ001>007-043-290500-
WEST OF THE DIVIDE

CITY           SKY/WX    TMP DP  RH WIND       PRES   REMARKS
KALISPELL      CLEAR     58  46  64 NW3       30.01S
MISSOULA       CLEAR     61  44  53 CALM      30.02S
BUTTE          CLEAR     56  41  57 SW5       30.20S
MULLAN PASS    PTCLDY    62  41  46 SE5       30.15S
ANACONDA         N/A     59  39  47 S5        30.15S
DEER LODGE       N/A     59  41  51 W3        30.16R
EUREKA           N/A     55  41  58 CALM      30.04S
HAMILTON         N/A     57  46  67 SE3       30.04S
LIBBY            N/A     57  50  77 SE3       30.00S
RONAN            N/A     50  42  73 CALM      30.06F
$$

MTZ008-052>055-290500-
SOUTHWEST MONTANA

CITY           SKY/WX    TMP DP  RH WIND       PRES   REMARKS
BOZEMAN        CLEAR     53  48  83 CALM      30.17R
DILLON         CLEAR     55  42  61 CALM      30.17R
W YELLOWSTONE    N/A     45  37  76 CALM      30.31R
ENNIS          CLEAR     55  43  62 SE6       30.25S
THREE FORKS      N/A     52  52 100 CALM      30.14S
TWIN BRIDGES     N/A     61  44  53 N8        30.13S
$$

MTZ009-010-012-014-046-048-049-054-290500-
EAST SLOPES AND CENTRAL MONTANA

CITY           SKY/WX    TMP DP  RH WIND       PRES   REMARKS
CUT BANK       CLEAR     54  43  66 SE3       30.17S
GREAT FALLS    CLEAR     48  45  89 CALM      30.16S
MALMSTROM AFB  CLEAR     56  47  72 W2        30.15S
HELENA         CLEAR     59  44  57 W6        30.15R
CHOTEAU          N/A     52  45  76 W3        30.19F
CONRAD           N/A     44  43  97 CALM      30.18S
$$

MTZ011-013-016-021-045-047-050-051-290500-
NORTH CENTRAL MONTANA

CITY           SKY/WX    TMP DP  RH WIND       PRES   REMARKS
HAVRE          CLEAR     55  49  80 NE10      30.14S
LEWISTOWN      CLEAR     56  47  71 SE7       30.17F
N BAR RANCH      N/A     55  46  71 CALM      30.24S
CHINOOK          N/A     55  48  76 CALM      30.15S
$$

MTZ017>020-022>027-061-062-290500-
NORTHEAST MONTANA

CITY           SKY/WX    TMP DP  RH WIND       PRES   REMARKS
GLASGOW        CLEAR     61  51  70 E10       30.17S
JORDAN           N/A     62  52  69 E5        30.17S
SIDNEY         CLEAR     61  47  59 S8        30.25R
WOLF POINT     CLEAR     59  52  77 E10       30.20F
PLENTYWOOD       N/A     59  43  55 SE14      30.25S
POPLAR           N/A     63  54  72 E9        30.21F
$$

MTZ028>42-056>058-290500-
SOUTHCENTRAL AND SOUTHEAST MONTANA

CITY           SKY/WX    TMP DP  RH WIND       PRES   REMARKS
BAKER          CLEAR     57  46  66 SE16      30.29R
BILLINGS       CLEAR     60  51  72 N3        30.16F
LIVINGSTON     CLEAR     51  46  83 SE3       30.22R
MILES CITY     CLEAR     69  51  52 E9        30.18F
BIG TIMBER     CLEAR     57  48  72 N3        30.24S
FORSYTH          N/A     63  55  77 E3        30.16S
LAUREL           N/A     61  49  64 N2        30.14S
ROUNDUP          N/A     58  48  69 W3        30.08F
$$

REGIONAL REPORTS...DAKOTAS

CITY           SKY/WX    TMP DP  RH WIND       PRES   REMARKS
WILLISTON      CLEAR     62  38  40 SE6       30.28R
MINOT          CLEAR     50  46  86 SE7       30.35S
DICKINSON      CLEAR     54  33  45 SE14      30.31R
BEACH            N/A     55  45  67 SE10      30.32R
CROSBY           N/A     57  36  44 E9        30.30S
WATFORD CITY     N/A     57  37  47 SE15      30.29S
BISMARCK       CLEAR     47  45  93 E7        30.38R
GRAND FORKS    MOCLDY    48  45  89 CALM      30.41R
FARGO          CLEAR     50  45  83 E8        30.40R
BUFFALO SD       N/A     58  40  51 SE15      30.25R
RAPID CITY     CLEAR     53  36  52 S6        30.35R
$$

REGIONAL REPORTS...WYOMING/IDAHO/WASHINGTON

CITY           SKY/WX    TMP DP  RH WIND       PRES   REMARKS
GILLETTE       CLEAR     55  46  71 S12       30.29R
SHERIDAN       CLEAR     63  38  39 SE8       30.20F
BUFFALO WY     CLEAR     65  35  33 S12       30.30S
CODY           CLEAR     61  45  55 CALM      30.24S
YELLOWSTONE LA   N/A     40  35  83 CALM      30.41S
IDAHO FALLS    CLEAR     57  48  72 N3        30.16S
SALMON         CLEAR     55  39  54 CALM      30.07R
BOISE          CLEAR     75  31  19 SE12      29.93R
SPOKANE        PTCLDY    64  39  39 W5        29.96S
$$

REGIONAL REPORTS...ALBERTA

CITY           SKY/WX    TMP DP  RH WIND       PRES   REMARKS
EDMONTON       PTCLDY    45  28  53 S7        30.22F
CALGARY        CLOUDY    48  39  71 SE12      30.19S
LETHBRIDGE     MOCLDY    50  41  71 VRB5      30.15F
MEDICINE HAT   CLEAR     48  41  76 NE7       30.20R
WATERTON GATE    N/A     41  37  87 E1          N/A
MILK RIVER       N/A     45  41  87 E2          N/A
ONEFOUR          N/A     52  45  76 NE10        N/A
$$

REGIONAL REPORTS...SASKATCHEWAN

CITY           SKY/WX    TMP DP  RH WIND       PRES   REMARKS
SWIFT CURRENT  CLOUDY    50  39  66 E14       30.21F
REGINA         CLEAR     59  39  47 SE16      30.25F
SASKATOON      CLOUDY    48  46  93 E10       30.31F
CYPRESS HILLS    N/A     50  41  71 E9          N/A
VAL MARIE        N/A     48  45  87 E2          N/A
ASSINIBOIA       N/A     50  34  53 SE8         N/A
$$




USA.gov is the U.S. government's official web portal to all federal, state and local government web resources and services.